Time,TemperatureF,DewpointF,PressureIn,WindDirection,WindDirectionDegrees,WindSpeedMPH,WindSpeedGustMPH,Humidity,HourlyPrecipIn,Conditions,Clouds,dailyrainin,SolarRadiationWatts/m^2,SoftwareType,DateUTC
2013-06-22 11:02:00,88.0,75.0,30.11,ESE,104,2.0,9.0,66,0.00,,,0.00,717.000000,,2013-06-22 15:02:00,
2013-06-22 11:12:00,88.0,75.0,30.11,ESE,104,2.0,9.0,66,0.00,,,0.00,717.000000,,2013-06-22 15:12:00,
2013-06-22 11:22:00,89.0,75.0,30.11,ENE,64,3.0,7.0,64,0.00,,,0.00,570.000000,,2013-06-22 15:22:00,
2013-06-22 11:34:00,89.0,77.0,30.11,East,94,3.0,6.0,68,0.00,,,0.00,819.000000,,2013-06-22 15:34:00,
2013-06-22 11:43:00,89.0,75.0,30.11,East,96,3.0,9.0,64,0.00,,,0.00,886.000000,,2013-06-22 15:43:00,
2013-06-22 11:53:00,89.0,75.0,30.11,East,96,3.0,9.0,64,0.00,,,0.00,886.000000,,2013-06-22 15:53:00,
2013-06-22 12:02:00,89.0,75.0,30.11,ENE,74,3.0,10.0,63,0.00,,,0.00,886.000000,,2013-06-22 16:02:00,
2013-06-22 12:12:00,89.0,75.0,30.11,ENE,63,2.0,7.0,63,0.00,,,0.00,944.000000,,2013-06-22 16:12:00,
2013-06-22 12:22:00,89.0,75.0,30.11,ENE,63,2.0,7.0,63,0.00,,,0.00,944.000000,,2013-06-22 16:22:00,
2013-06-22 12:34:00,89.0,75.0,30.11,East,93,3.0,8.0,64,0.00,,,0.00,926.000000,,2013-06-22 16:34:00,
2013-06-22 12:43:00,90.0,75.0,30.11,ESE,102,4.0,8.0,62,0.00,,,0.00,,,2013-06-22 16:43:00,
2013-06-22 12:52:00,90.0,75.0,30.11,ESE,102,4.0,8.0,62,0.00,,,0.00,,,2013-06-22 16:52:00,
2013-06-22 13:02:00,89.0,75.0,30.11,ESE,107,4.0,9.0,63,0.00,,,0.00,220.000000,,2013-06-22 17:02:00,
2013-06-22 13:11:00,89.0,75.0,30.11,SE,133,4.0,9.0,64,0.00,,,0.00,998.000000,,2013-06-22 17:11:00,
2013-06-22 13:22:00,89.0,75.0,30.11,SE,133,4.0,9.0,64,0.00,,,0.00,998.000000,,2013-06-22 17:22:00,
2013-06-22 13:34:00,89.0,75.0,30.11,ENE,69,4.0,8.0,63,0.00,,,0.00,,,2013-06-22 17:34:00,
2013-06-22 13:43:00,89.0,75.0,30.11,East,90,2.0,9.0,63,0.00,,,0.00,,,2013-06-22 17:43:00,
2013-06-22 13:52:00,89.0,75.0,30.11,East,90,2.0,9.0,63,0.00,,,0.00,,,2013-06-22 17:52:00,
2013-06-22 14:02:00,89.0,75.0,30.11,ENE,71,3.0,10.0,64,0.00,,,0.00,988.000000,,2013-06-22 18:02:00,
2013-06-22 14:12:00,89.0,74.0,30.10,ENE,70,4.0,11.0,61,0.00,,,0.00,972.000000,,2013-06-22 18:12:00,
2013-06-22 14:23:00,89.0,74.0,30.10,ENE,70,4.0,11.0,61,0.00,,,0.00,972.000000,,2013-06-22 18:23:00,
2013-06-22 14:34:00,89.0,75.0,30.09,SE,134,6.0,11.0,63,0.00,,,0.00,949.000000,,2013-06-22 18:34:00,
2013-06-22 14:43:00,90.0,75.0,30.09,NE,53,4.0,12.0,62,0.00,,,0.00,956.000000,,2013-06-22 18:43:00,
2013-06-22 14:52:00,90.0,75.0,30.09,NE,53,4.0,12.0,62,0.00,,,0.00,956.000000,,2013-06-22 18:52:00,
2013-06-22 15:01:00,89.0,75.0,30.09,East,86,6.0,11.0,64,0.00,,,0.00,925.000000,,2013-06-22 19:01:00,
2013-06-22 15:11:00,89.0,77.0,30.09,ESE,109,3.0,10.0,67,0.00,,,0.00,,,2013-06-22 19:11:00,
2013-06-22 15:22:00,89.0,77.0,30.09,ESE,109,3.0,10.0,67,0.00,,,0.00,,,2013-06-22 19:22:00,
2013-06-22 15:33:00,89.0,77.0,30.08,East,90,3.0,11.0,67,0.00,,,0.00,874.000000,,2013-06-22 19:33:00,
2013-06-22 15:43:00,88.0,76.0,30.08,ENE,65,3.0,10.0,67,0.00,,,0.00,826.000000,,2013-06-22 19:43:00,
2013-06-22 15:53:00,88.0,76.0,30.08,ENE,65,3.0,10.0,67,0.00,,,0.00,826.000000,,2013-06-22 19:53:00,
2013-06-22 16:02:00,89.0,75.0,30.08,ENE,72,7.0,12.0,63,0.00,,,0.00,791.000000,,2013-06-22 20:02:00,
2013-06-22 16:11:00,89.0,76.0,30.08,East,90,5.0,12.0,65,0.00,,,0.00,742.000000,,2013-06-22 20:11:00,
2013-06-22 16:22:00,89.0,76.0,30.08,East,90,5.0,12.0,65,0.00,,,0.00,742.000000,,2013-06-22 20:22:00,
2013-06-22 16:33:00,88.0,75.0,30.08,ENE,78,5.0,11.0,66,0.00,,,0.00,710.000000,,2013-06-22 20:33:00,
2013-06-22 16:43:00,88.0,75.0,30.07,ENE,70,5.0,12.0,66,0.00,,,0.00,661.000000,,2013-06-22 20:43:00,
2013-06-22 16:53:00,88.0,75.0,30.07,ENE,70,5.0,12.0,66,0.00,,,0.00,661.000000,,2013-06-22 20:53:00,
2013-06-22 17:01:00,88.0,75.0,30.07,ESE,117,2.0,10.0,66,0.00,,,0.00,631.000000,,2013-06-22 21:01:00,
2013-06-22 17:11:00,88.0,75.0,30.07,East,98,2.0,10.0,65,0.00,,,0.00,589.000000,,2013-06-22 21:11:00,
2013-06-22 17:22:00,88.0,75.0,30.07,East,98,2.0,10.0,65,0.00,,,0.00,589.000000,,2013-06-22 21:22:00,
2013-06-22 17:34:00,88.0,75.0,30.07,East,81,4.0,10.0,65,0.00,,,0.00,543.000000,,2013-06-22 21:34:00,
2013-06-22 17:43:00,87.0,76.0,30.06,East,96,5.0,10.0,69,0.00,,,0.00,190.000000,,2013-06-22 21:43:00,
2013-06-22 17:53:00,87.0,76.0,30.06,East,96,5.0,10.0,69,0.00,,,0.00,190.000000,,2013-06-22 21:53:00,
2013-06-22 18:02:00,87.0,76.0,30.06,East,90,4.0,11.0,69,0.00,,,0.00,450.000000,,2013-06-22 22:02:00,
2013-06-22 18:12:00,87.0,76.0,30.06,East,90,4.0,11.0,69,0.00,,,0.00,450.000000,,2013-06-22 22:12:00,
2013-06-22 18:23:00,87.0,76.0,30.06,ENE,76,5.0,9.0,69,0.00,,,0.00,406.000000,,2013-06-22 22:23:00,
2013-06-22 18:33:00,87.0,75.0,30.06,East,85,4.0,10.0,68,0.00,,,0.00,348.000000,,2013-06-22 22:33:00,
2013-06-22 18:43:00,87.0,75.0,30.06,East,85,4.0,10.0,68,0.00,,,0.00,348.000000,,2013-06-22 22:43:00,
2013-06-22 18:52:00,86.0,75.0,30.06,SE,124,4.0,10.0,71,0.00,,,0.00,309.000000,,2013-06-22 22:52:00,
2013-06-22 19:01:00,86.0,75.0,30.06,NE,53,6.0,12.0,71,0.00,,,0.00,244.000000,,2013-06-22 23:01:00,
2013-06-22 19:11:00,86.0,75.0,30.06,NE,53,6.0,12.0,71,0.00,,,0.00,244.000000,,2013-06-22 23:11:00,
2013-06-22 19:22:00,85.0,75.0,30.05,East,80,3.0,11.0,72,0.00,,,0.00,105.000000,,2013-06-22 23:22:00,
2013-06-22 19:34:00,85.0,75.0,30.06,East,82,4.0,11.0,72,0.00,,,0.00,134.000000,,2013-06-22 23:34:00,
2013-06-22 19:43:00,85.0,75.0,30.06,East,82,4.0,11.0,72,0.00,,,0.00,134.000000,,2013-06-22 23:43:00,
2013-06-22 19:53:00,84.0,75.0,30.06,East,93,3.0,10.0,74,0.00,,,0.00,51.000000,,2013-06-22 23:53:00,
2013-06-22 20:01:00,83.0,74.0,30.06,ENE,67,2.0,12.0,75,0.00,,,0.00,37.000000,,2013-06-23 00:01:00,
2013-06-22 20:11:00,83.0,74.0,30.06,ENE,67,2.0,12.0,75,0.00,,,0.00,37.000000,,2013-06-23 00:11:00,
2013-06-22 20:22:00,83.0,75.0,30.06,ENE,78,3.0,9.0,77,0.00,,,0.00,23.000000,,2013-06-23 00:22:00,
2013-06-22 20:33:00,83.0,75.0,30.07,East,82,4.0,8.0,77,0.00,,,0.00,0.000000,,2013-06-23 00:33:00,
2013-06-22 20:42:00,83.0,75.0,30.07,East,82,4.0,8.0,77,0.00,,,0.00,0.000000,,2013-06-23 00:42:00,
2013-06-22 20:53:00,82.0,74.0,30.07,ENE,76,2.0,8.0,77,0.00,,,0.00,0.000000,,2013-06-23 00:53:00,
2013-06-22 21:01:00,82.0,74.0,30.07,ENE,76,2.0,8.0,77,0.00,,,0.00,0.000000,,2013-06-23 01:01:00,
2013-06-22 21:11:00,82.0,74.0,30.07,ENE,76,2.0,8.0,77,0.00,,,0.00,0.000000,,2013-06-23 01:11:00,
2013-06-22 21:22:00,82.0,74.0,30.07,ENE,76,2.0,8.0,77,0.00,,,0.00,0.000000,,2013-06-23 01:22:00,
2013-06-22 21:32:00,82.0,74.0,30.07,ENE,76,2.0,8.0,77,0.00,,,0.00,0.000000,,2013-06-23 01:32:00,
2013-06-22 22:31:00,82.0,75.0,30.08,ESE,116,2.0,9.0,79,0.00,,,0.00,0.000000,,2013-06-23 02:31:00,
2013-06-22 22:52:00,82.0,75.0,30.08,ESE,116,2.0,9.0,79,0.00,,,0.00,0.000000,,2013-06-23 02:52:00,
2013-06-22 23:01:00,82.0,75.0,30.08,ESE,116,2.0,9.0,79,0.00,,,0.00,0.000000,,2013-06-23 03:01:00,
2013-06-22 23:11:00,82.0,75.0,30.08,ESE,116,2.0,9.0,79,0.00,,,0.00,0.000000,,2013-06-23 03:11:00,
2013-06-22 23:21:00,82.0,75.0,30.08,ESE,116,2.0,9.0,79,0.00,,,0.00,0.000000,,2013-06-23 03:21:00,